Terug naar catalogus

IRIDE-MS2-HEO-14

ActiefWetenschapSSO
NORAD 68986·PAYLOAD·🇮🇹 Italy

Gelanceerd May 3, 2026 vanaf Vandenberg Space Force Base

Loading…

Volgende Passages (komende 24 uur)

TLE

VersSource: Space-Track

Epoch: Sep 14, 2026, 10:08 UTC

1 68986U 26100G   26257.42241566  .00000948  00000-0  10021-3 0  9996
2 68986  97.7233 153.1483 0003867 140.1690 219.9813 14.91507533 20003

Volg IRIDE-MS2-HEO-14 in realtime met AllMySat

Download on the App Store